Location: Jarocin
(51.9626°N, 17.5030°E)
Time: 01:02:08
(UTC+01:00)

ISS - Pass Details

Date: 23 January 2019
Orbit: 403 x 411 km, 51.6° (Epoch: 20 February)

Event Time Altitude Azimuth Distance (km) Brightness Sun altitude
Rises 18:34:23 0° 211° (SSW) 2,327 0.6 -20.1°
Reaches altitude 10° 18:36:49 10° 193° (SSW) 1,472 -0.8 -20.5°
Enters shadow 18:37:54 16° 177° (S) 1,185 -1.5 -20.6°
